Showing default

FLOCK 4BE 7, 60481

Orbit data source: Space-Track

FLOCK 4BE 7, 60481 is a payload satellite owned by Planet (US) in SSO that was launched on Fri, 16 Aug 2024 UTC via an FALCON 9 launch vehicle from the Air Force Western Test Range (AFWTR). Payload-class satellites include a variety of spacecraft equipped with specific instruments for various scientific and technological missions. These include communications satellites like Starlink; space stations such as the ISS; scientific satellites like the Hubble; Earth observation satellites from companies like Planet Labs, Umbra, and HawkEye 360; GPS; miniature CubeSats for education and research; and military/defense satellites.

Loading next visibility...
Identifier
60481, 2024-149P
Orbit
SSO
Country
Flag of USUS
Related business
Manufacturer
Planet
Mission
Operational Commercial Imaging
Bus & Motor
CUBESAT 3U, Unknown motor
Mass
5.7 kg wet, 5.7 kg dry
Launch date (UTC)
2024-08-16 (1 year ago)
Launch vehicle
FALCON 9
Launch site
Air Force Western Test Range (AFWTR)
Object type
Payload
Rocket body
Debris
Shape & HBR
Box + 2 Pan, 1.0 m
Radar Cross Section
0.072 m², Medium (>0.1 m² and < 1m²)

Expand to show TLE details & history
Last TLE update: 7 hours ago

TLE from 7 hours ago
0 FLOCK 4BE 7
1 60481U 24149P   26035.13411443  .00019197  00000-0  56551-3 0  9998
2 60481  97.3867 117.5693 0003325  36.4107 323.7362 15.35078519 81804
Epoch: 2026-02-04T03:13Z
TLE epoch observation values (Epoch: 2026-02-04T03:13:07.486Z)
Latitude
-0.00004°
Longitude
-65.01695°
Altitude
461.965 km
Speed
7.637 km/s
True Right ascension
07h 50m 16s
True Declination
0° 00' 00"
Sunlit
Object was in full shadow at epoch
Visualization orbit readout
Latitude
Unknown
Longitude
Unknown
Altitude
Unknown
Speed
Unknown
Apparent Right ascension
Unknown
Apparent Declination
Unknown
Sunlit
N/A
Visualization observer readout
Local Sidereal Time
12:21:56
Azimuth
Unknown
Elevation
Unknown
Doppler factor
Unknown
Orbital elements
Apogee altitude
459.905 km
Perigee altitude
455.359 km
Semi-major axis
6,835.769 km
Eccentricity
0.00033
Inclination
97.3867°
RAAN
117.5693°
Arg. of periapsis
36.4107°
True anomaly
323.71366°
Mean anomaly
323.7362°
Eccentric anomaly
323.72493°
Mean motion
3.84027 °/min
Orbital period
93.74 mins
BSTAR
0.00056551
Loading maneuver chart data...
Computing Atmospheric mass density...
Loading historical data...
Loading historical data...
Loading historical data...
Loading historical data...
Loading historical data...
Loading historical data...
Loading historical data...

Documentation

Showing up to 5 results
|